FW6644 Weather Reports


Display with metric or nautical units.
time (UTC)temp
F
wind
direction
speed
MPH
gust
MPH
rain 1hr
in
rain 24hr
in
rain mn
in
humidity
%
barometer
mb
20260904190006 98 136 3.0 9.0 0.00 0.00 0.00 37 1009.0
20260904184501 98 224 2.0 9.0 0.00 0.00 0.00 37 1009.2
20260904183058 97 179 2.0 10.0 0.00 0.00 0.00 38 1009.4
20260904181556 97 86 1.0 11.0 0.00 0.00 0.00 40 1009.6
20260904180054 96 167 3.0 9.0 0.00 0.00 0.00 40 1009.7
20260904174552 95 188 4.0 11.0 0.00 0.00 0.00 41 1009.8
20260904173102 94 35 3.0 11.0 0.00 0.00 0.00 44 1009.9
20260904171547 94 249 5.0 14.0 0.00 0.00 0.00 44 1010.0
20260904170043 93 226 5.0 11.0 0.00 0.00 0.00 45 1009.9
20260904164545 92 128 6.0 12.0 0.00 0.00 0.00 47 1009.7
20260904163039 92 328 5.0 11.0 0.00 0.00 0.00 48 1009.6
20260904161544 92 249 6.0 13.0 0.00 0.00 0.00 48 1009.6
20260904160037 91 179 7.0 13.0 0.00 0.00 0.00 49 1009.7
20260904154530 90 131 6.0 12.0 0.00 0.00 0.00 52 1009.6
20260904153027 90 120 5.0 10.0 0.00 0.00 0.00 53 1009.4
20260904151535 89 120 4.0 12.0 0.00 0.00 0.00 55 1009.4
20260904150023 89 333 5.0 9.0 0.00 0.00 0.00 54 1009.3
20260904144518 88 142 2.0 8.0 0.00 0.00 0.00 55 1009.2
20260904143016 89 56 2.0 8.0 0.00 0.00 0.00 55 1009.0
20260904141513 88 300 2.0 6.0 0.00 0.00 0.00 57 1009.0
20260904140011 87 143 2.0 5.0 0.00 0.00 0.00 59 1008.7
20260904134509 85 77 1.0 4.0 0.00 0.00 0.00 60 1008.5
20260904133007 84 157 1.0 7.0 0.00 0.00 0.00 62 1008.4
20260904131504 84 165 2.0 8.0 0.00 0.00 0.00 63 1008.1
20260904130003 84 201 4.0 8.0 0.00 0.00 0.00 62 1007.9
20260904124501 84 136 1.0 6.0 0.00 0.00 0.00 62 1007.6
20260904123109 84 136 2.0 6.0 0.00 0.00 0.00 61 1007.5
20260904121557 84 181 2.0 6.0 0.00 0.00 0.00 60 1007.4
20260904120058 84 153 0.0 3.0 0.00 0.00 0.00 60 1007.3
20260904114555 84 153 1.0 6.0 0.00 0.00 0.00 59 1007.3
20260904113056 85 95 0.0 5.0 0.00 0.00 0.00 59 1007.3
20260904111553 85 198 1.0 6.0 0.00 0.00 0.00 58 1007.3
20260904110051 85 157 3.0 7.0 0.00 0.00 0.00 58 1007.3
20260904104551 85 158 1.0 4.0 0.00 0.00 0.00 58 1007.3
20260904103052 85 159 1.0 4.0 0.00 0.00 0.00 58 1007.1
20260904101547 85 171 1.0 4.0 0.00 0.00 0.00 58 1006.9
20260904100048 85 153 1.0 5.0 0.00 0.00 0.00 57 1006.9
20260904094547 86 183 0.0 7.0 0.00 0.00 0.00 56 1006.8
20260904093049 86 180 3.0 8.0 0.00 0.00 0.00 56 1006.8
20260904091544 85 122 0.0 1.0 0.00 0.00 0.00 57 1006.8
20260904090049 85 131 0.0 1.0 0.00 0.00 0.00 56 1006.8
20260904084541 85 145 0.0 2.0 0.00 0.00 0.00 56 1006.7
20260904083041 85 161 0.0 3.0 0.00 0.00 0.00 56 1006.8
20260904081545 86 207 0.0 3.0 0.00 0.00 0.00 56 1007.0
20260904080048 86 134 0.0 4.0 0.00 0.00 0.00 55 1006.9
20260904074536 86 186 2.0 8.0 0.00 0.00 0.00 55 1006.9
20260904073044 86 164 1.0 4.0 0.00 0.00 0.00 54 1006.8
20260904071530 87 204 1.0 5.0 0.00 0.00 0.00 53 1006.8
20260904070028 87 221 2.0 5.0 0.00 0.00 0.00 53 1006.7
20260904064527 88 20 1.0 5.0 0.00 0.00 0.00 52 1006.4
20260904063028 88 204 4.0 12.0 0.00 0.00 0.00 52 1006.3
20260904061529 89 221 4.0 11.0 0.00 0.00 0.00 51 1006.2
20260904060026 89 212 4.0 10.0 0.00 0.00 0.00 50 1006.2
20260904054525 90 69 3.0 9.0 0.00 0.00 0.00 48 1006.2
20260904053028 90 240 1.0 6.0 0.00 0.00 0.00 47 1006.2
20260904051531 90 186 3.0 6.0 0.00 0.00 0.00 45 1006.0
20260904050023 90 56 2.0 5.0 0.00 0.00 0.00 45 1006.0
20260904044535 91 53 3.0 9.0 0.00 0.00 0.00 44 1006.1
20260904043022 91 190 3.0 9.0 0.00 0.00 0.00 42 1006.0
20260904041533 92 96 4.0 9.0 0.00 0.00 0.00 40 1005.9
20260904040021 91 258 0.0 2.0 0.00 0.00 0.00 42 1005.8
20260904034520 91 160 1.0 3.0 0.00 0.00 0.00 42 1005.5
20260904033020 91 136 1.0 5.0 0.00 0.00 0.00 42 1005.2
20260904031521 91 155 4.0 7.0 0.00 0.00 0.00 42 1004.9
20260904030019 91 83 1.0 6.0 0.00 0.00 0.00 42 1004.8
20260904024519 91 120 2.0 8.0 0.00 0.00 0.00 42 1004.7
20260904023019 91 149 3.0 9.0 0.00 0.00 0.00 42 1004.6
20260904021617 92 140 4.0 9.0 0.00 0.00 0.00 42 1004.5
20260904020015 92 96 3.0 10.0 0.00 0.00 0.00 41 1004.6
20260904014516 93 253 4.0 9.0 0.00 0.00 0.00 40 1004.7
20260904013015 93 249 4.0 13.0 0.00 0.00 0.00 40 1004.6
20260904011515 95 94 5.0 17.0 0.00 0.00 0.00 37 1004.5
20260904010014 99 228 2.0 7.0 0.00 0.00 0.00 31 1004.2
20260904004513 99 146 1.0 7.0 0.00 0.00 0.00 30 1004.2
20260904003013 101 136 2.0 9.0 0.00 0.00 0.00 29 1004.2
20260904001512 102 210 5.0 9.0 0.00 0.00 0.00 28 1004.1